Regional Weather Roundup
Issued by NWS New Orleans/Baton Rouge, LA

Home | Current Version | Previous Version | Text Only | Print | Product List | Glossary Off
Versions: 1 2 3 4 5 6 7 8 9 10 11 12 13 14 15 16 17 18 19 20 21 22 23 24 25 26 27 28 29 30 31 32 33 34 35 36 37 38 39 40 41 42 43 44 45 46 47 48 49 50

985
ASUS44 KLIX 011105
RWRLIX
NEW ORLEANS REGIONAL WEATHER ROUNDUP
NATIONAL WEATHER SERVICE NEW ORLEANS LA
600 AM CDT FRI AUG 01 2014

NOTE: "FAIR" INDICATES FEW OR NO CLOUDS BELOW 12,000 FEET WITH NO
      SIGNIFICANT WEATHER AND/OR OBSTRUCTIONS TO VISIBILITY.
      SKY/WX - SKY CONDITION AND SIGNIFICANT WEATHER.
      TMP - AIR TEMPERATURE.     DP    - DEWPOINT TEMPERATURE.
      RH  - RELATIVE HUMIDITY.   PRES  - PRESSURE.
      HI  - HEAT INDEX.          WCI   - WIND CHILL INDEX.

*  THESE STATIONS ARE NOT NWS OR FAA STATIONS AND ARE NOT UNDER
   NWS QUALITY CONTROL.

LAZ038-040-048-061>063-065>067-069-011200-
SOUTHEAST LOUISIANA

CITY           SKY/WX    TMP DP  RH WIND       PRES   REMARKS
N.O. AUDUBON   NOT AVBL
N.O. INTL ARPT MOCLDY    78  68  71 CALM      29.98R
N.O. LAKEFRONT CLOUDY    80  71  74 E6        29.99R
N.O. DOWNTOWN* PTSUNNY   81  64  57 CALM      29.99R
SLIDELL        CLOUDY    73  69  87 CALM      29.99R
BATON ROUGE    CLOUDY    73  67  81 NE6       29.98R
BOOTHVILLE     CLOUDY    78  70  76 SE3       29.98R
BELLE CHASSE   CLOUDY    74  70  87 CALM      29.98R
BOGALUSA*      CLOUDY    73  68  86 CALM      30.02R
GALLIANO*      NOT AVBL
NEW ROADS*     PTSUNNY   74  67  80 CALM      29.97S
GONZALES*      PTSUNNY   73  73 100 CALM      29.98R
HAMMOND*       CLOUDY    73  66  78 CALM      30.01R
HOUMA*         CLOUDY    74  70  87 CALM      29.97S
PORT FOURCHON* SUNNY     81  68  65 E3        29.99R

$$

MSZ070-080>082-011200-
SOUTHERN MISSISSIPPI

CITY           SKY/WX    TMP DP  RH WIND       PRES   REMARKS
MCCOMB         CLOUDY    71  67  87 CALM      30.01R
GULFPORT       CLOUDY    77  65  66 NE5       29.97S
BILOXI         CLOUDY    74  67  78 NE6       29.98R
PASCAGOULA     CLOUDY    71  69  93 CALM      29.98S

$$

COASTAL OBSERVATIONS
LAKE AND NEARSHORE STATIONS

STATION/POSITION TIME  TEMP    WIND        PRES    WAVE
                       AIR SEA DIR/SP/G            HT/PER
                 (UTC) (F)     (DEG/KT/KT) (MB)    (FT/S)
PASCAGOULA       1000   75      10/  6/  7 1014.5
WAVELAND YACHT   1000   76      80/  5/  7 1014.3
GRAND ISLE       1000   82 86  110/  3/  5 1015.6
SOUTHWEST PASS   1000   82 85   50/  4/  5 1015.3
NEW CANAL        1000   79 83     CALM     1015.6
SHELL BEACH      1000   81 82   70/  5/  6 1014.6

OFFSHORE STATIONS

STATION/POSITION TIME  TEMP    WIND        PRES    WAVE
                       AIR SEA DIR/SP/G            HT/PER
                 (UTC) (F)     (DEG/KT/KT) (MB)    (FT/S)
64 S DAUPHIN ISL 1030   81 84   10/  4/  6 1015.3

$$




USA.gov is the U.S. government's official web portal to all federal, state and local government web resources and services.